Wetbulb
52.23 52.27 52.28 51.83 51.16 49.91 50.87 55.93 51.16 58.53 57.16 48.08 49.61 48.51 51.74 52.87 52.94 53.59 51.54 51.69 50.94 51.25 51.64 51.30 51.80 50.82 52.69 55.81 55.33 52.48 54.95 52.40 50.07 51.39 55.31 56.66 55.07 53.73 53.60 49.39 51.73 52.28 51.78 50.44
52.11 52.23 52.01 51.60 50.72 50.38 52.94 54.44 54.52 58.29 54.86 44.88 46.84 50.45 51.27 53.67 52.38 51.83 51.53 49.61 51.20 52.53 51.23 50.18 52.29 53.26 55.15 55.39 54.23 53.70 55.29 51.83 47.65 49.73 53.06 56.03 53.60 53.99 55.24 56.09 56.89 52.69 48.01 50.99
51.64 52.25 52.07 51.78 50.94 50.37 51.37 55.80 50.49 52.77 52.55 51.15 50.00 50.25 50.30 50.67 52.99 51.74 52.11 51.23 51.76 50.64 49.76 52.91 51.79 52.80 54.91 55.52 54.76 61.02 59.78 54.42 52.97 46.42 51.12 53.57 52.76 53.16 54.29 54.53 52.03 52.27 52.07 53.55
51.35 52.27 52.11 51.94 51.31 50.37 50.93 55.20 53.54 55.25 47.34 47.93 49.28 51.79 51.30 49.66 49.33 51.76 52.03 50.20 49.74 49.40 48.16 49.87 50.30 52.45 53.94 55.54 60.57 56.66 56.42 54.23 52.92 52.80 53.09 53.41 53.23 53.41 53.74 51.96 52.86 50.72 53.69 54.23
51.04 52.10 52.15 51.82 50.97 49.39 53.76 53.92 53.34 55.22 53.31 53.92 50.67 48.70 48.96 49.38 50.40 51.09 49.87 49.30 50.10 50.20 48.96 50.37 49.93 51.70 53.29 53.59 56.30 55.17 55.73 53.80 53.81 51.01 52.95 52.76 51.55 53.85 52.33 55.17 53.73 53.20 54.14 54.27
50.89 51.62 52.13 51.69 50.50 49.77 56.21 56.34 56.46 53.87 51.57 51.48 50.69 50.17 50.39 50.23 52.07 52.69 52.88 52.43 51.25 50.30 51.60 53.37 53.66 55.54 56.43 58.26 57.68 58.55 57.27 54.53 54.10 48.94 51.95 51.92 49.61 52.29 53.53 53.97 55.67 54.37 53.05 57.40
50.57 51.16 51.65 51.63 50.49 49.38 53.41 56.48 54.69 52.21 48.34 51.67 50.66 51.19 51.93 50.71 51.81 50.64 52.82 53.96 52.51 54.79 59.56 58.68 57.16 55.68 55.52 56.52 57.21 58.86 59.22 60.52 55.42 50.08 53.40 45.11 53.05 56.27 55.30 54.22 56.27 59.77 59.45 60.28
50.13 50.91 51.27 51.77 50.87 50.04 52.20 56.60 54.26 52.86 49.14 52.11 51.68 51.71 51.26 52.46 53.10 51.96 52.13 54.85 55.91 59.93 57.53 52.61 50.80 50.95 52.58 52.71 54.80 56.20 57.70 58.09 53.12 49.85 48.45 51.47 52.96 55.03 54.16 53.59 54.10 61.84 58.93 59.21
49.89 50.68 51.12 50.97 50.99 49.56 52.44 56.57 55.98 54.10 50.32 50.18 53.22 52.13 52.36 50.81 51.89 53.02 53.82 55.75 59.43 58.41 54.66 51.90 47.78 44.52 48.40 47.76 50.05 55.58 56.63 61.40 54.23 52.83 47.78 45.69 54.70 59.57 59.53 60.12 53.31 58.63 56.58 55.36
49.57 49.91 50.74 50.91 50.83 49.69 49.69 54.76 56.72 54.06 50.09 52.26 52.35 50.81 51.20 53.68 52.64 52.12 55.76 56.60 55.79 57.90 52.19 48.59 47.01 46.17 50.84 46.91 48.91 51.25 52.89 55.12 51.91 51.50 49.77 52.45 59.03 58.92 61.37 52.09 53.59 60.00 60.85 60.62
49.44 49.38 50.25 50.64 50.32 50.00 49.25 54.75 56.20 53.00 51.61 52.80 52.47 52.55 52.06 52.89 52.94 49.90 53.60 54.39 55.32 54.43 51.66 50.02 49.49 49.41 51.20 51.40 54.20 53.69 52.89 52.42 51.14 53.26 50.59 48.29 63.12 58.71 52.42 55.48 57.21 63.22 63.81 68.09
49.48 49.18 49.67 50.27 49.99 49.78 49.36 52.90 56.04 55.30 50.82 52.01 54.87 53.36 53.45 53.03 53.59 51.96 54.09 54.02 56.58 55.96 53.80 53.70 54.71 51.31 53.44 53.59 48.60 57.23 51.67 55.59 49.03 55.42 54.82 59.97 64.30 64.01 67.05 67.22 67.97 66.41 66.40 66.84
49.57 49.05 49.29 49.76 49.74 49.51 48.85 51.65 55.56 54.72 51.94 52.13 51.78 51.90 55.86 56.37 56.59 57.07 52.22 55.58 55.91 56.71 56.97 54.98 54.70 52.78 54.13 48.98 49.89 53.48 57.64 55.75 50.11 54.27 59.89 60.92 62.03 66.04 66.12 67.65 66.82 66.14 66.70 66.85
49.80 49.29 49.22 49.27 49.23 49.44 48.97 52.44 55.73 54.97 53.16 48.58 52.04 57.82 54.47 56.82 57.44 56.27 56.63 55.82 57.81 57.85 56.15 53.56 53.06 51.88 55.95 52.14 51.89 51.24 54.94 56.62 55.93 58.33 60.02 61.64 63.90 65.51 67.06 67.23 68.31 65.91 66.67 67.22
49.98 49.46 49.07 48.94 48.99 49.40 49.15 54.48 56.64 56.59 51.87 48.65 51.44 54.68 55.53 56.31 56.65 55.51 55.98 56.34 55.91 55.26 53.16 52.22 50.65 55.28 53.94 54.12 53.58 50.00 55.31 54.94 53.59 56.01 62.66 63.05 64.30 67.33 67.09 66.30 65.77 66.40 66.48 66.88
50.09 49.52 48.90 48.50 48.76 49.50 50.98 51.80 56.54 55.72 55.97 50.75 48.09 55.51 54.73 55.42 55.95 55.03 55.56 56.32 55.26 53.52 52.84 52.66 54.54 57.18 53.76 49.98 48.92 53.84 57.01 58.50 55.95 56.70 64.66 65.42 66.11 66.81 66.98 66.09 66.41 67.10 67.24 67.67
50.13 49.34 48.54 48.46 49.18 48.31 49.72 49.00 51.93 48.66 54.02 51.48 47.62 48.18 54.52 55.75 55.19 54.46 54.30 56.18 53.70 53.57 52.53 52.60 53.14 54.09 53.49 50.91 48.15 55.75 56.93 54.01 57.57 58.81 63.36 62.13 63.74 64.11 65.78 64.61 65.26 63.92 64.08 63.79
49.70 48.81 48.78 49.12 48.96 48.27 48.90 53.74 50.42 50.54 53.38 51.97 46.92 49.19 52.14 55.91 51.01 50.02 54.48 52.40 52.73 52.70 51.27 52.24 51.86 52.79 52.96 47.64 52.45 54.12 54.23 56.56 58.43 58.35 60.52 62.97 65.61 62.39 62.19 62.29 61.50 60.08 59.81 61.41
48.95 48.38 48.66 49.18 49.30 51.13 54.14 51.51 51.74 55.94 53.25 48.52 47.29 46.20 46.73 55.39 51.51 53.20 54.38 54.16 48.31 52.73 49.17 49.47 50.52 49.48 46.16 49.18 51.90 52.21 55.43 57.05 56.56 58.45 59.98 60.06 61.30 61.63 58.76 57.14 58.70 58.91 58.13 58.91
47.88 47.52 48.14 48.29 53.01 52.88 52.49 52.00 50.70 50.17 51.11 50.67 47.58 50.76 48.56 53.64 51.17 49.45 50.24 52.10 48.66 45.27 48.71 51.78 47.37 46.74 52.61 52.82 53.91 56.49 56.47 56.49 58.07 58.35 58.19 58.67 59.08 58.53 55.39 58.21 58.98 58.46 58.31 59.56
46.77 47.94 49.61 54.36 50.60 52.54 51.59 48.26 46.93 48.11 45.60 48.59 48.14 48.84 47.78 54.67 50.02 49.78 51.70 49.07 48.50 45.54 47.41 46.78 45.96 45.86 50.64 56.01 56.62 56.82 56.02 56.47 56.84 59.70 61.06 61.01 61.24 59.75 59.04 57.77 59.34 58.91 60.05 60.52
48.39 49.83 54.06 52.32 50.08 48.98 45.08 44.66 46.83 46.24 44.18 48.63 47.25 48.26 49.72 53.93 54.95 51.43 51.03 46.47 48.61 42.97 47.89 48.27 45.15 53.43 55.55 55.37 55.41 56.06 57.31 57.45 58.00 59.19 59.18 59.58 59.96 59.51 59.68 58.79 59.83 60.30 60.65 60.97
52.09 50.43 47.75 48.29 47.41 38.39 39.92 39.05 43.11 43.80 48.78 50.51 49.66 49.20 49.86 51.36 52.97 49.71 49.77 45.56 44.05 51.84 46.82 45.20 48.71 55.90 56.00 56.17 55.94 55.88 56.65 56.54 56.67 56.63 57.28 57.85 57.79 58.88 58.85 58.48 59.31 60.03 60.11 60.60
47.00 44.77 35.89 42.01 40.33 42.40 43.70 45.10 46.41 50.06 50.49 50.76 50.98 50.06 47.87 50.12 48.75 49.41 44.28 47.71 48.83 43.82 37.88 39.97 52.15 55.12 55.74 56.27 56.52 56.13 55.41 56.49 56.36 56.33 56.88 57.13 57.69 58.07 58.99 59.35 59.85 59.74 59.39 60.02
45.47 45.83 36.94 41.63 47.06 47.47 48.28 51.17 51.24 53.51 54.14 52.66 51.47 51.32 49.99 49.60 47.51 49.21 46.24 44.61 42.11 43.94 44.55 49.65 53.95 56.45 56.33 55.94 56.03 56.08 56.37 56.44 56.60 57.07 56.86 57.62 58.10 58.10 58.54 59.72 59.68 59.73 59.33 58.78
47.57 46.28 44.26 46.38 45.96 46.65 49.07 49.70 49.52 52.45 52.07 52.86 52.55 48.22 46.48 45.30 46.66 44.57 43.89 42.41 41.44 46.05 50.11 52.78 55.41 55.66 55.90 55.94 55.98 56.07 57.17 56.76 56.76 57.03 57.32 57.45 57.56 57.84 58.02 58.99 59.35 58.81 58.23 57.61
44.84 44.85 49.18 48.54 48.42 47.69 49.24 50.17 51.61 54.47 52.20 49.58 48.69 44.77 44.88 49.24 44.01 44.47 48.34 46.35 49.70 51.30 52.17 52.78 53.65 55.84 56.13 56.49 56.80 56.72 56.56 56.28 56.48 56.05 56.71 57.02 58.55 58.05 57.48 56.78 58.32 58.35 57.92 57.64
MSLP
1021.99 1021.37 1020.59 1019.87 1019.01 1017.47 1016.20 1013.71 1010.36 1009.29 1009.35 1009.47 1008.49 1007.15 1005.96 1004.72 1003.39 1003.57 1003.93 1003.59 1002.96 1001.87 1000.67 999.93 999.12 998.72 998.40 998.20 998.46 998.59 999.15 999.47 999.16 998.49 997.89 998.43 998.58 998.56 999.00 999.28 999.70 1000.39 1001.45 1002.11
1021.63 1021.00 1020.45 1019.83 1019.22 1018.87 1017.25 1013.23 1009.37 1009.16 1009.07 1008.08 1006.97 1006.37 1005.39 1004.49 1003.99 1003.90 1004.01 1003.84 1003.38 1002.72 1002.04 1001.45 1000.31 999.49 999.20 998.71 998.59 999.73 999.48 999.71 999.54 999.14 998.81 997.69 998.15 998.38 998.42 998.95 999.81 1000.35 1001.96 1002.96
1021.67 1021.06 1020.44 1019.83 1019.34 1019.07 1018.33 1013.41 1009.03 1008.43 1008.71 1007.93 1007.03 1005.75 1004.93 1004.57 1005.04 1004.97 1004.48 1004.13 1003.74 1003.32 1003.06 1002.46 1001.73 1000.63 999.72 999.92 1000.00 1000.45 1000.41 999.90 999.95 999.35 998.69 998.08 998.08 998.46 998.50 998.77 999.22 999.90 1001.60 1003.82
1021.57 1021.04 1020.39 1019.74 1019.12 1018.57 1018.20 1013.06 1008.96 1007.81 1007.41 1007.23 1006.84 1006.02 1005.33 1004.87 1004.89 1005.05 1005.21 1004.87 1004.45 1004.01 1003.75 1003.12 1002.39 1001.53 1000.63 1000.11 1000.61 1000.91 1001.03 1000.67 1000.49 999.98 999.32 998.77 998.41 998.15 998.06 998.45 999.06 999.97 1001.93 1003.90
1021.41 1020.81 1020.13 1019.45 1018.78 1017.73 1016.45 1012.43 1010.04 1009.02 1007.56 1007.30 1006.47 1006.32 1006.22 1005.75 1005.19 1005.15 1004.99 1005.16 1004.81 1004.74 1004.36 1003.86 1002.86 1002.18 1001.79 1001.18 1000.63 1000.91 1001.22 1001.29 1001.41 1000.70 1000.03 999.28 998.44 998.49 998.87 998.25 998.39 999.47 1000.96 1004.27
1021.29 1020.77 1020.11 1019.41 1018.77 1017.21 1013.94 1012.17 1011.11 1010.37 1008.31 1007.48 1007.17 1006.41 1006.35 1005.92 1005.57 1005.30 1005.12 1004.98 1004.89 1004.75 1004.16 1003.77 1003.21 1002.63 1002.58 1002.13 1001.92 1001.50 1001.39 1001.57 1001.73 1001.18 1000.56 999.74 998.53 997.91 997.59 997.72 998.20 999.15 1001.05 1003.30
1021.34 1020.86 1020.28 1019.73 1019.17 1019.01 1017.25 1013.96 1013.07 1010.97 1008.76 1007.40 1006.44 1005.85 1005.86 1006.22 1006.33 1006.29 1005.77 1005.33 1005.17 1004.80 1005.17 1004.63 1003.95 1003.46 1003.09 1002.69 1002.25 1002.09 1001.95 1001.93 1001.94 1001.63 1001.03 999.67 998.76 997.97 997.57 997.95 998.59 999.97 1002.43 1004.25
1021.35 1020.94 1020.44 1019.91 1019.40 1018.98 1017.45 1014.91 1013.64 1011.77 1009.50 1007.67 1006.42 1006.55 1006.90 1006.70 1006.75 1006.86 1006.33 1005.53 1005.45 1005.89 1005.89 1005.48 1004.90 1004.46 1003.91 1003.12 1002.39 1001.99 1001.99 1002.36 1002.21 1002.17 1001.19 1000.16 999.05 998.31 998.02 998.38 999.99 1000.74 1003.71 1005.73
1021.53 1021.12 1020.61 1020.07 1019.61 1019.03 1017.44 1015.33 1014.96 1013.38 1011.09 1008.65 1008.21 1007.31 1007.35 1007.18 1006.31 1005.91 1006.06 1005.77 1005.99 1006.58 1006.38 1005.88 1005.31 1004.36 1003.63 1003.24 1002.78 1002.29 1002.11 1002.41 1002.82 1002.16 1001.27 1000.35 999.65 999.89 999.90 999.62 1001.85 1002.84 1003.17 1005.41
1021.54 1021.22 1020.77 1020.29 1019.77 1019.36 1018.49 1015.98 1015.15 1014.03 1011.92 1009.85 1009.71 1008.71 1008.69 1008.09 1007.67 1006.98 1006.97 1006.69 1006.54 1006.35 1006.11 1005.51 1004.66 1003.87 1003.26 1002.71 1002.42 1002.41 1002.22 1002.54 1002.53 1002.55 1002.07 1001.18 1001.93 1001.62 1000.39 1003.46 1004.93 1003.70 1003.28 1004.23
1021.57 1021.30 1020.97 1020.57 1020.09 1019.61 1018.83 1015.99 1015.26 1014.76 1012.75 1010.72 1010.71 1010.18 1010.02 1009.52 1009.22 1008.71 1008.72 1007.79 1006.89 1006.31 1005.90 1005.32 1004.31 1003.78 1003.67 1003.14 1002.54 1002.43 1002.78 1003.37 1003.33 1002.95 1002.71 1002.90 1003.56 1003.36 1003.64 1004.26 1004.10 1001.05 1003.45 1004.05
1021.51 1021.29 1021.03 1020.71 1020.27 1019.78 1019.31 1016.21 1014.70 1014.90 1014.34 1011.99 1011.45 1011.12 1011.02 1010.94 1010.73 1010.47 1009.61 1008.95 1008.45 1008.35 1007.45 1006.56 1005.53 1004.94 1004.91 1004.93 1004.18 1003.77 1004.57 1005.82 1007.67 1004.80 1003.75 1004.58 1004.41 1004.57 1004.25 1004.40 1004.05 1003.16 1003.79 1004.62
1021.33 1021.15 1020.95 1020.72 1020.42 1020.05 1019.86 1017.69 1015.68 1014.94 1013.75 1011.79 1010.91 1010.27 1010.88 1010.67 1010.71 1010.43 1010.16 1009.61 1010.13 1009.31 1009.94 1008.57 1006.97 1006.85 1007.53 1007.45 1007.11 1006.20 1005.61 1006.51 1006.60 1008.23 1005.74 1004.45 1004.71 1004.86 1004.47 1004.03 1004.25 1004.23 1004.47 1004.61
1021.13 1021.02 1020.86 1020.63 1020.43 1020.14 1019.85 1017.80 1015.91 1015.21 1013.87 1011.71 1010.18 1010.21 1010.54 1010.71 1010.57 1010.77 1010.69 1010.62 1010.53 1010.18 1009.45 1008.46 1007.30 1007.07 1008.40 1009.12 1009.59 1009.20 1007.87 1007.45 1006.22 1006.55 1005.25 1004.52 1004.55 1004.59 1004.32 1004.79 1004.97 1004.37 1004.62 1004.61
1020.93 1020.93 1020.80 1020.58 1020.37 1020.12 1019.27 1017.49 1015.79 1015.53 1015.31 1012.82 1010.37 1010.03 1010.08 1010.48 1010.71 1010.56 1010.60 1010.66 1010.55 1009.47 1008.83 1008.25 1007.94 1007.97 1009.18 1009.09 1009.56 1010.69 1011.59 1010.44 1008.99 1005.88 1004.95 1004.50 1005.05 1005.09 1004.82 1005.09 1004.97 1005.10 1005.50 1005.84
1020.75 1020.80 1020.72 1020.49 1020.22 1019.92 1018.63 1016.22 1015.62 1016.45 1015.66 1014.08 1010.58 1009.87 1010.01 1010.24 1010.57 1010.47 1010.46 1010.28 1010.08 1009.55 1009.17 1008.54 1008.67 1009.25 1010.25 1009.97 1009.90 1011.39 1012.30 1011.52 1011.20 1009.46 1003.79 1005.40 1005.59 1005.47 1005.51 1005.41 1005.93 1006.01 1006.47 1007.02
1020.58 1020.67 1020.67 1020.33 1020.22 1019.65 1018.39 1018.26 1017.45 1017.69 1016.97 1014.33 1011.31 1009.31 1009.55 1009.86 1010.22 1010.10 1009.82 1009.81 1009.82 1009.53 1009.01 1009.14 1009.15 1010.23 1010.80 1010.51 1010.55 1011.08 1011.68 1011.59 1011.19 1008.27 1004.33 1005.78 1006.01 1006.40 1006.84 1007.68 1008.01 1008.25 1008.88 1009.39
1020.45 1020.50 1020.31 1020.16 1019.87 1019.44 1018.34 1017.14 1017.61 1017.61 1016.03 1013.96 1011.56 1009.47 1009.18 1009.67 1009.37 1009.31 1009.10 1009.12 1009.06 1009.23 1009.28 1008.97 1009.33 1010.55 1011.34 1010.87 1010.65 1011.36 1011.63 1011.21 1011.23 1009.90 1006.30 1005.83 1007.27 1008.63 1009.61 1010.13 1010.75 1010.83 1010.77 1010.92
1020.43 1020.23 1020.21 1019.49 1018.69 1016.78 1016.99 1017.45 1017.47 1016.83 1016.42 1013.86 1011.16 1009.19 1009.46 1009.54 1009.20 1008.79 1009.10 1009.15 1008.82 1008.39 1008.57 1008.75 1009.28 1009.61 1010.34 1010.67 1010.81 1011.07 1011.51 1010.74 1010.34 1010.95 1009.09 1008.69 1008.33 1009.79 1010.85 1011.59 1011.85 1012.28 1012.72 1012.35
1020.30 1020.07 1018.75 1016.96 1016.31 1017.13 1017.30 1017.35 1016.22 1015.68 1014.55 1013.73 1011.57 1009.42 1008.66 1008.95 1008.64 1008.91 1009.16 1009.06 1008.65 1008.06 1007.81 1007.77 1008.30 1008.85 1009.23 1010.05 1010.50 1010.49 1010.79 1010.60 1010.05 1009.67 1009.87 1008.83 1009.17 1010.70 1011.57 1011.32 1011.85 1011.62 1011.72 1011.82
1019.54 1017.84 1016.11 1016.48 1017.11 1016.69 1015.67 1014.85 1014.33 1013.57 1012.68 1011.74 1010.81 1009.77 1008.96 1008.73 1009.15 1010.67 1011.58 1010.88 1011.06 1008.99 1007.71 1007.85 1008.14 1008.07 1008.17 1009.30 1010.14 1010.31 1010.21 1009.92 1009.60 1009.41 1009.48 1009.31 1009.62 1010.57 1011.64 1012.74 1011.87 1011.19 1011.27 1011.00
1018.53 1018.05 1016.25 1016.08 1015.81 1015.15 1014.55 1013.79 1012.84 1011.82 1011.00 1010.05 1009.72 1009.49 1009.58 1009.75 1010.10 1010.67 1012.22 1011.80 1010.73 1010.31 1010.99 1009.65 1008.81 1009.41 1009.44 1009.83 1010.17 1010.29 1010.17 1010.43 1010.44 1010.20 1010.11 1010.15 1010.34 1011.05 1011.77 1012.69 1011.51 1011.13 1011.35 1011.58
1017.47 1017.16 1015.72 1014.90 1014.93 1014.55 1013.38 1012.10 1011.16 1010.55 1009.97 1009.85 1009.79 1009.73 1009.68 1010.04 1010.58 1010.63 1011.07 1011.60 1011.24 1010.16 1009.61 1009.74 1010.44 1010.69 1010.13 1010.25 1010.32 1010.63 1010.83 1010.91 1011.01 1011.12 1011.18 1011.04 1011.09 1011.06 1011.47 1011.73 1011.75 1011.60 1011.81 1011.90
1016.75 1015.68 1015.63 1014.56 1013.55 1012.56 1011.19 1010.25 1009.63 1009.29 1009.51 1009.77 1009.70 1009.62 1010.12 1010.05 1010.57 1011.08 1011.11 1010.91 1010.99 1011.45 1011.68 1011.96 1011.96 1011.59 1011.57 1011.54 1011.59 1011.51 1011.56 1011.41 1011.25 1011.20 1011.12 1011.02 1010.94 1011.17 1011.47 1011.46 1011.59 1011.96 1012.14 1012.39
1015.59 1014.41 1013.86 1013.05 1011.71 1010.83 1010.05 1009.83 1010.33 1010.03 1009.65 1010.04 1009.86 1010.33 1010.16 1010.36 1010.78 1011.33 1012.71 1011.68 1011.33 1011.43 1012.48 1013.24 1012.91 1012.45 1012.63 1012.63 1012.45 1012.40 1012.55 1012.57 1012.45 1012.32 1011.91 1011.61 1011.58 1011.80 1011.84 1011.92 1012.25 1012.21 1012.60 1013.04
1015.04 1013.90 1012.46 1011.41 1011.22 1010.59 1010.17 1010.07 1009.94 1010.13 1010.21 1010.50 1010.43 1010.92 1010.44 1011.21 1011.47 1010.54 1010.98 1010.80 1011.72 1012.84 1013.45 1013.77 1013.55 1013.41 1013.37 1013.21 1013.10 1013.35 1013.51 1013.63 1013.51 1013.53 1013.37 1013.21 1012.85 1012.65 1012.62 1012.59 1013.05 1013.16 1013.49 1013.92
1014.23 1012.94 1012.02 1011.13 1010.71 1010.39 1009.97 1010.05 1010.33 1010.18 1010.91 1010.84 1011.35 1011.20 1010.83 1010.43 1011.27 1010.81 1010.96 1011.90 1012.25 1012.86 1013.97 1014.41 1014.21 1014.17 1013.95 1013.67 1013.63 1014.08 1014.27 1014.29 1014.45 1014.45 1014.30 1014.13 1013.76 1013.81 1013.55 1013.61 1013.75 1013.83 1014.23 1014.49
Wind_Speed
16 18 19 20 21 28 5 7 8 8 8 8 9 13 20 14 16 9 8 11 16 18 13 15 14 14 15 13 13 16 12 9 13 19 15 14 17 15 16 10 9 8 9 9
16 18 19 19 18 16 8 6 6 7 8 8 11 17 21 20 8 8 12 12 13 16 13 10 13 16 6 8 4 4 11 10 12 15 16 15 16 20 13 12 11 14 6 6
15 17 18 18 17 14 5 7 3 6 7 12 17 16 17 10 7 15 12 14 12 14 11 14 10 18 2 2 9 9 8 9 9 14 13 11 14 15 16 16 9 10 4 9
15 16 18 19 19 18 5 5 6 6 6 11 14 13 13 14 15 11 12 12 11 10 9 14 14 17 17 6 4 8 6 9 13 16 19 18 18 18 22 19 17 16 9 14
15 16 18 20 21 25 5 6 7 11 11 5 7 6 7 11 11 13 13 14 15 17 15 16 15 16 13 14 10 12 11 9 11 17 19 21 20 8 7 31 15 15 13 9
15 17 18 20 22 19 6 7 9 5 9 7 9 10 13 14 12 12 6 11 12 14 12 14 18 14 13 11 10 10 11 10 10 14 17 18 19 20 14 13 10 12 8 13
14 17 18 19 19 17 7 6 7 8 10 10 10 14 1 1 6 8 14 15 13 9 11 12 10 13 14 15 13 10 9 8 8 12 14 19 15 19 20 16 11 10 22 22
13 16 18 18 19 18 7 8 6 8 11 14 11 4 4 8 3 10 14 11 4 8 9 6 6 11 15 18 19 11 12 9 9 12 14 17 19 20 21 13 12 12 22 15
11 14 17 18 18 19 9 6 5 7 9 8 13 9 4 9 10 14 11 11 3 6 8 8 12 12 15 16 18 16 16 10 11 12 15 20 15 7 14 19 7 17 28 15
9 12 15 18 19 18 9 6 6 5 8 2 8 6 8 9 8 7 11 12 5 12 9 11 13 14 17 16 17 16 14 10 14 13 14 17 10 8 11 4 5 15 18 21
7 10 13 15 18 18 11 7 4 5 8 4 6 7 6 7 4 8 11 9 8 8 10 10 13 8 4 9 13 14 10 10 12 13 17 15 15 12 4 7 18 15 14 14
7 8 11 14 16 18 16 5 3 5 6 8 7 7 5 6 4 6 8 8 5 7 8 8 8 6 6 10 11 13 5 4 2 10 4 3 11 10 12 2 0 9 9 12
7 7 9 12 14 16 12 8 6 6 7 9 11 11 4 5 3 7 6 5 6 3 5 6 6 5 6 5 5 16 5 5 8 23 5 6 5 9 7 5 4 7 9 8
7 7 8 11 13 15 13 7 4 6 7 6 10 5 5 3 3 3 2 4 5 7 7 9 8 4 2 1 4 7 13 8 8 6 13 12 13 6 7 5 4 6 5 6
7 7 8 10 13 15 11 10 3 3 6 6 3 6 5 10 4 4 2 3 5 6 5 5 6 3 5 5 3 5 17 15 9 4 6 10 8 3 7 7 5 8 8 8
7 7 8 10 12 14 7 5 4 9 7 6 4 8 6 5 6 6 4 5 5 4 4 6 3 11 3 4 4 9 4 12 10 13 15 15 11 5 6 3 10 8 8 8
7 7 9 10 11 8 6 7 5 10 6 5 4 4 7 7 6 8 7 8 6 3 4 3 3 1 3 4 8 11 8 9 15 25 6 8 8 8 6 19 17 19 17 16
7 7 9 12 14 13 7 3 8 5 5 5 5 3 8 8 6 6 6 3 5 5 5 3 3 5 1 4 8 11 5 9 11 15 25 13 12 23 22 18 18 17 15 12
6 7 10 6 5 5 5 3 3 4 5 6 5 8 5 5 7 6 3 3 6 5 6 7 5 7 6 8 11 12 7 4 7 12 13 12 9 21 16 12 10 9 3 4
4 5 6 6 6 7 4 3 5 5 5 5 6 9 2 6 5 4 3 1 6 8 9 9 8 8 12 13 12 4 4 5 4 2 10 9 8 18 12 10 10 13 8 7
5 6 2 6 3 4 5 4 4 5 4 5 6 10 8 5 2 6 7 5 8 7 5 6 7 10 10 10 6 3 1 3 5 4 6 7 11 11 11 2 13 7 8 5
7 5 4 4 5 4 4 4 4 5 6 5 6 6 6 3 4 5 5 2 6 5 2 4 7 6 11 9 6 3 6 5 7 7 7 7 9 7 13 13 4 6 4 4
5 5 5 2 3 1 6 7 5 5 2 4 4 3 3 3 3 4 3 2 5 9 4 5 3 6 8 6 7 7 4 3 4 4 3 5 3 6 7 4 4 6 5 5
5 5 3 4 5 6 6 8 7 5 7 7 8 5 4 4 3 3 4 4 4 2 2 6 1 5 7 7 7 7 8 9 7 5 6 7 7 7 6 7 6 4 4 4
5 5 4 8 7 6 7 8 3 0 0 3 2 4 4 2 3 4 3 4 5 4 2 3 3 6 6 5 4 3 6 5 6 7 9 9 9 7 6 7 8 7 9 9
3 4 6 6 5 5 3 3 5 7 5 3 2 2 4 4 7 6 6 5 2 3 3 2 3 5 6 3 5 5 7 6 5 5 6 6 7 8 7 7 9 9 8 8
4 5 7 7 1 4 5 5 6 4 4 2 2 4 6 3 3 8 4 3 5 7 7 6 2 3 3 2 5 7 5 4 2 3 4 5 5 5 5 6 6 6 6 6
Wind_Direction
328 330 335 337 340 332 271 275 264 137 167 201 223 233 238 259 271 140 267 268 284 289 286 302 293 226 239 228 224 245 203 243 243 271 194 199 258 221 226 259 271 231 283 192
333 335 337 339 346 357 314 260 218 162 207 228 225 224 252 246 255 278 264 239 264 281 291 302 298 285 18 28 189 5 248 224 253 262 268 204 213 243 259 235 241 270 162 152
332 334 336 340 343 347 284 275 226 149 208 259 289 288 219 240 208 278 278 271 259 260 249 269 278 282 234 100 289 5 320 265 220 254 238 254 213 240 247 257 264 262 289 99
334 338 338 339 341 339 271 250 279 1 180 219 247 264 303 218 244 201 247 259 264 273 263 258 252 264 295 253 226 262 276 269 279 271 271 283 273 239 220 233 236 250 159 122
337 342 344 343 344 332 248 294 342 349 277 347 296 227 242 268 266 241 209 237 240 233 250 262 265 257 279 280 244 206 243 247 264 276 279 271 271 219 64 265 227 238 233 161
339 344 348 347 352 337 288 16 298 263 302 200 240 239 230 237 235 264 295 273 232 249 268 242 256 300 307 292 313 314 218 242 237 256 267 264 267 263 257 270 248 247 274 135
340 343 349 349 354 5 306 312 303 280 261 245 229 242 184 325 270 269 267 232 256 320 343 315 288 279 279 278 268 269 277 267 258 260 260 253 267 266 261 250 253 128 121 124
340 343 346 349 350 355 305 316 313 296 287 301 225 200 242 252 254 233 261 281 267 10 318 313 281 270 261 263 267 244 258 261 244 245 256 261 263 258 259 234 250 34 114 140
336 341 345 346 348 354 310 343 314 285 290 28 1 353 345 280 285 200 217 227 65 302 267 236 239 242 240 231 243 257 250 211 256 261 247 251 264 355 7 338 146 97 94 84
331 339 343 344 347 350 326 305 13 280 284 15 341 342 344 343 324 305 30 0 287 221 238 237 236 234 242 233 229 228 228 237 227 232 255 257 9 5 70 13 20 150 132 167
316 334 339 342 344 349 340 306 24 332 310 4 7 344 328 334 340 337 358 284 207 258 235 243 252 279 310 286 251 238 232 228 227 251 234 225 10 360 55 188 311 144 148 107
299 327 337 339 342 344 340 270 38 342 268 330 326 289 290 278 311 305 314 307 354 354 312 13 335 291 342 349 296 308 221 100 28 317 84 60 92 78 29 131 304 57 91 115
279 315 331 334 337 338 345 306 330 293 252 259 228 203 143 266 262 322 305 51 351 303 352 298 284 76 348 6 321 327 126 143 108 284 53 72 94 114 121 65 319 121 124 144
266 298 318 329 329 327 329 291 345 285 294 279 124 149 204 195 116 285 7 334 316 280 277 296 307 341 70 163 305 313 314 296 193 166 170 144 122 82 108 123 265 99 105 110
253 280 306 320 321 318 303 267 297 306 311 327 6 161 155 189 162 215 201 320 309 299 283 256 277 28 7 312 143 359 353 350 322 118 114 136 112 150 152 158 143 148 134 116
241 274 297 308 314 321 282 200 135 17 328 275 271 105 171 181 192 232 233 267 253 277 325 289 341 73 342 300 329 155 285 322 353 321 130 118 122 154 122 128 148 151 137 73
233 264 283 300 304 302 304 350 356 332 303 256 257 209 148 194 195 227 231 197 255 254 279 273 240 317 309 273 286 13 21 21 354 326 355 116 144 114 77 67 68 67 68 59
232 262 289 294 291 276 258 159 230 281 272 277 270 157 184 177 217 228 211 256 233 199 252 191 261 122 27 261 259 343 42 28 23 324 337 18 57 70 57 48 40 40 50 53
239 282 295 279 218 238 69 118 203 246 294 299 248 274 58 180 240 254 177 215 267 238 206 241 207 213 211 230 246 285 165 284 149 286 315 317 30 94 84 90 53 8 47 53
264 260 206 216 62 131 155 173 196 197 206 227 268 285 203 231 184 233 218 325 248 240 219 223 196 233 228 206 212 216 284 285 252 288 274 296 353 120 126 132 188 193 184 158
216 228 29 81 125 219 222 199 216 187 221 208 231 267 307 46 329 34 0 20 338 294 270 202 212 214 201 115 119 216 332 295 283 217 316 315 87 70 64 284 202 176 163 103
329 308 273 147 215 230 215 200 214 232 225 167 211 207 239 110 359 166 183 203 234 208 357 274 245 103 105 117 108 83 66 60 32 16 10 13 43 50 128 174 0 54 80 121
242 231 194 185 129 93 213 189 196 205 206 120 221 152 261 111 276 264 131 37 291 309 289 211 104 206 112 103 126 110 90 97 113 89 17 8 17 41 72 38 11 25 352 8
227 166 349 207 196 220 212 213 225 114 173 169 195 180 199 193 151 259 267 254 312 132 1 295 80 124 101 89 81 64 25 9 16 12 358 338 12 21 359 356 12 349 334 337
229 207 206 206 252 216 230 87 117 65 122 130 189 201 227 167 210 118 280 256 235 343 54 350 159 115 124 87 67 48 53 17 1 354 340 348 357 340 317 7 354 336 27 12
245 254 241 185 206 208 230 138 227 139 209 162 224 290 242 93 303 222 214 253 39 50 69 106 50 92 99 60 47 40 33 1 357 344 343 326 320 340 341 352 32 40 36 39
237 217 260 229 228 312 181 137 66 101 95 196 30 264 219 313 340 253 7 326 110 121 112 69 339 93 90 25 38 31 352 344 347 317 336 304 3 40 41 41 26 37 68 64